FW1436 Weather Reports


Display with metric or nautical units.
time (UTC)temp
F
wind
direction
speed
MPH
gust
MPH
rain 1hr
in
rain 24hr
in
rain mn
in
humidity
%
barometer
mb
20260905181559 87 296 3.0 11.0 0.00 0.00 0.00 33 1015.3
20260905180043 88 252 4.0 9.0 0.00 0.00 0.00 31 1015.3
20260905174541 89 259 1.0 10.0 0.00 0.00 0.00 31 1015.1
20260905173043 89 217 2.0 7.0 0.00 0.00 0.00 30 1015.1
20260905171541 90 256 0.0 4.0 0.00 0.00 0.00 31 1015.0
20260905170040 90 288 3.0 6.0 0.00 0.00 0.00 30 1015.1
20260905164538 91 136 3.0 8.0 0.00 0.00 0.00 29 1015.1
20260905163039 91 246 1.0 6.0 0.00 0.00 0.00 29 1015.0
20260905161551 92 233 1.0 7.0 0.00 0.00 0.00 27 1015.0
20260905160038 92 287 2.0 6.0 0.00 0.00 0.00 27 1015.0
20260905154540 92 242 1.0 7.0 0.00 0.00 0.00 27 1015.1
20260905153037 92 308 3.0 6.0 0.00 0.00 0.00 27 1015.1
20260905151535 92 354 3.0 7.0 0.00 0.00 0.00 26 1015.0
20260905150036 92 322 2.0 7.0 0.00 0.00 0.00 27 1014.9
20260905144534 93 302 3.0 10.0 0.00 0.00 0.00 26 1014.9
20260905143036 93 339 3.0 12.0 0.00 0.00 0.00 27 1015.0
20260905141535 93 281 3.0 8.0 0.00 0.00 0.00 28 1015.3
20260905140029 92 296 5.0 10.0 0.00 0.00 0.00 28 1015.6
20260905134527 92 324 3.0 7.0 0.00 0.00 0.00 28 1015.7
20260905133026 93 300 2.0 7.0 0.00 0.00 0.00 27 1015.8
20260905131525 92 294 4.0 7.0 0.00 0.00 0.00 29 1016.1
20260905130025 92 302 0.0 6.0 0.00 0.00 0.00 30 1016.2
20260905124524 92 267 0.0 7.0 0.00 0.00 0.00 31 1016.1
20260905123023 92 297 1.0 7.0 0.00 0.00 0.00 31 1016.4
20260905121526 91 269 1.0 5.0 0.00 0.00 0.00 31 1016.4
20260905120025 91 256 2.0 5.0 0.00 0.00 0.00 32 1016.5
20260905114520 91 231 1.0 6.0 0.00 0.00 0.00 31 1016.5
20260905113020 91 229 1.0 3.0 0.00 0.00 0.00 32 1016.7
20260905111521 91 191 0.0 3.0 0.00 0.00 0.00 31 1016.8
20260905110020 91 254 1.0 5.0 0.00 0.00 0.00 31 1016.9
20260905104519 92 229 2.0 6.0 0.00 0.00 0.00 31 1016.8
20260905103015 90 229 2.0 6.0 0.00 0.00 0.00 32 1017.1
20260905101513 90 229 3.0 6.0 0.00 0.00 0.00 33 1017.1
20260905100011 89 113 2.0 6.0 0.00 0.00 0.00 35 1017.1
20260905094510 87 79 2.0 8.0 0.00 0.00 0.00 36 1017.0
20260905093007 87 99 1.0 5.0 0.00 0.00 0.00 35 1017.0
20260905091505 87 344 0.0 5.0 0.00 0.00 0.00 35 1017.0
20260905090005 86 283 1.0 5.0 0.00 0.00 0.00 35 1016.9
20260905084502 85 90 0.0 5.0 0.00 0.00 0.00 36 1016.7
20260905083058 84 103 2.0 5.0 0.00 0.00 0.00 35 1016.8
20260905081557 84 39 1.0 5.0 0.00 0.00 0.00 36 1016.9
20260905074607 81 131 0.0 4.0 0.00 0.00 0.00 37 1016.9
20260905073055 80 116 1.0 4.0 0.00 0.00 0.00 38 1016.6
20260905071554 79 101 0.0 3.0 0.00 0.00 0.00 39 1016.3
20260905070106 78 95 0.0 3.0 0.00 0.00 0.00 39 1016.2
20260905064550 78 72 0.0 4.0 0.00 0.00 0.00 39 1016.0
20260905063046 0 0.0 0.0 0.00 0.00 0.00 1015.9
20260905061541 0 0.0 0.0 0.00 0.00 0.00 1015.9
20260905060037 0 0.0 0.0 0.00 0.00 0.00 1015.8
20260905054546 0 0.0 0.0 0.00 0.00 0.00 1015.6
20260905053039 0 0.0 0.0 0.00 0.00 0.00 1015.5
20260905051536 0 0.0 0.0 0.00 0.00 0.00 1015.5
20260905050021 0 0.0 0.0 0.00 0.00 0.00 1015.5
20260905044520 0 105 0.0 4.0 0.00 0.00 0.00 1015.6
20260905043012 79 101 0.0 3.0 0.00 0.00 0.00 36 1015.4
20260905041512 79 92 0.0 3.0 0.00 0.00 0.00 36 1015.3
20260905040010 79 91 0.0 2.0 0.00 0.00 0.00 36 1015.3
20260905034509 79 100 1.0 5.0 0.00 0.00 0.00 35 1015.4
20260905033011 79 109 0.0 1.0 0.00 0.00 0.00 35 1015.4
20260905031510 79 84 0.0 2.0 0.00 0.00 0.00 35 1015.6
20260905030004 79 53 0.0 2.0 0.00 0.00 0.00 34 1015.6
20260905024501 79 97 0.0 3.0 0.00 0.00 0.00 33 1015.7
20260905023104 80 108 0.0 2.0 0.00 0.00 0.00 33 1015.8
20260905021558 80 103 0.0 3.0 0.00 0.00 0.00 32 1015.8
20260905020059 81 99 1.0 5.0 0.00 0.00 0.00 31 1015.8
20260905014554 81 91 0.0 2.0 0.00 0.00 0.00 31 1016.0
20260905013055 81 103 0.0 2.0 0.00 0.00 0.00 30 1016.1
20260905011556 81 117 0.0 5.0 0.00 0.00 0.00 30 1016.1
20260905010105 82 98 0.0 2.0 0.00 0.00 0.00 30 1016.2
20260905004550 82 80 0.0 3.0 0.00 0.00 0.00 29 1016.2
20260905003049 82 104 1.0 3.0 0.00 0.00 0.00 29 1016.2
20260905001550 83 127 0.0 3.0 0.00 0.00 0.00 29 1016.1
20260905000048 83 88 1.0 5.0 0.00 0.00 0.00 28 1016.2
20260904234550 83 87 0.0 3.0 0.00 0.00 0.00 28 1016.2
20260904233045 83 117 0.0 3.0 0.00 0.00 0.00 28 1016.2
20260904231545 83 110 0.0 3.0 0.00 0.00 0.00 28 1016.2
20260904230046 82 79 0.0 4.0 0.00 0.00 0.00 29 1016.2
20260904224601 81 34 0.0 2.0 0.00 0.00 0.00 29 1016.2
20260904223141 83 134 4.0 8.0 0.00 0.00 0.00 28 1016.3
20260904221538 83 150 0.0 0.0 0.00 0.00 0.00 28 1016.0
20260904220033 84 156 0.0 1.0 0.00 0.00 0.00 27 1015.9
20260904214532 86 144 1.0 5.0 0.00 0.00 0.00 25 1015.9
20260904213033 88 63 0.0 1.0 0.00 0.00 0.00 24 1015.8
20260904211533 87 5 0.0 2.0 0.00 0.00 0.00 24 1015.9
20260904210030 88 49 0.0 2.0 0.00 0.00 0.00 24 1016.0
20260904204530 88 307 0.0 2.0 0.00 0.00 0.00 24 1016.0
20260904203038 87 30 0.0 1.0 0.00 0.00 0.00 24 1015.9
20260904201529 87 302 0.0 2.0 0.00 0.00 0.00 24 1015.8
20260904200028 86 66 0.0 2.0 0.00 0.00 0.00 25 1015.8
20260904194528 85 75 0.0 2.0 0.00 0.00 0.00 28 1015.6
20260904193029 86 127 0.0 0.0 0.00 0.00 0.00 27 1015.4
20260904191526 87 127 0.0 0.0 0.00 0.00 0.00 25 1015.4
20260904190026 88 117 0.0 2.0 0.00 0.00 0.00 24 1015.1
20260904184623 90 220 0.0 0.0 0.00 0.00 0.00 23 1015.0
20260904183025 92 219 0.0 1.0 0.00 0.00 0.00 21 1015.0